Location: Antioch
(38.0049°N, 121.8058°W)
Time: 00:52:19
(UTC+00:00)

Cosmos 2082 - Pass Details

Date: 11 February 2026
Orbit: 831 x 854 km, 71.0° (Epoch: 10 March)

Event Time Altitude Azimuth Distance (km) Brightness Sun altitude
Rises 14:27:58 0° 338° (NNW) 3,425 6.5 -7.2°
Reaches altitude 10° 14:30:26 10° 339° (NNW) 2,483 5.8 -6.8°
Maximum altitude 14:36:09 84° 67° (ENE) 856 3.8 -5.7°
Drops below altitude 10° 14:41:48 10° 157° (SSE) 2,453 6.7 -4.6°
Sets 14:44:13 0° 158° (SSE) 3,381 7.4 -4.1°
